• In Spain
  • List of Countries
  • For 7 days
  • Water Temperature
  • Satellite Maps
  • Weather Map
  • Weather Widgets
  • user-avatar
    Login

    Hourly Weather Brisbane

    Today, 18 October, Wednesday

    Time Temperature Precipitation Wind Pressure Humidity
    00:00 +20°C° 0.4 mm 6 mps 765 mmHg 90%
    01:00 +20°C° 0.4 mm 6 mps 764 mmHg 91%
    02:00 +20°C° 0.5 mm 6 mps 764 mmHg 91%
    03:00 +20°C° 0.5 mm 6 mps 764 mmHg 91%
    04:00 +20°C° 0 mm 6 mps 764 mmHg 91%
    05:00 +20°C° 0.3 mm 6 mps 765 mmHg 90%
    06:00 +21°C° 0.3 mm 6 mps 765 mmHg 90%
    07:00 +21°C° 0.3 mm 6 mps 765 mmHg 90%
    08:00 +21°C° 0.3 mm 6 mps 766 mmHg 88%
    09:00 +21°C° 0.3 mm 6 mps 766 mmHg 86%
    10:00 +22°C° 0 mm 6 mps 766 mmHg 84%
    11:00 +22°C° 0.2 mm 6 mps 766 mmHg 82%
    12:00 +22°C° 0.2 mm 6 mps 766 mmHg 80%
    13:00 +22°C° 0.2 mm 6 mps 766 mmHg 78%
    14:00 +22°C° 0.2 mm 6 mps 766 mmHg 77%
    15:00 +22°C° 0.2 mm 6 mps 766 mmHg 76%
    16:00 +22°C° 0 mm 6 mps 765 mmHg 76%
    17:00 +22°C° 0.2 mm 5 mps 766 mmHg 79%
    18:00 +21°C° 0.2 mm 5 mps 766 mmHg 82%
    19:00 +20°C° 0.2 mm 5 mps 766 mmHg 85%
    20:00 +20°C° 0.1 mm 5 mps 767 mmHg 85%
    21:00 +20°C° 0.1 mm 5 mps 767 mmHg 86%
    22:00 +20°C° 0.1 mm 5 mps 767 mmHg 86%
    23:00 +20°C° 0.1 mm 4 mps 767 mmHg 86%

    Tomorrow, 19 October, Thursday

    Time Temperature Precipitation Wind Pressure Humidity
    00:00 +20°C° 0.1 mm 4 mps 767 mmHg 86%
    01:00 +20°C° 0.1 mm 4 mps 767 mmHg 86%
    02:00 +20°C° 0.1 mm 4 mps 767 mmHg 86%
    03:00 +19°C° 0.1 mm 4 mps 766 mmHg 87%
    04:00 +19°C° 0.1 mm 4 mps 766 mmHg 87%
    05:00 +20°C° 0.1 mm 4 mps 767 mmHg 84%
    06:00 +21°C° 0.1 mm 4 mps 767 mmHg 81%
    07:00 +21°C° 0.1 mm 4 mps 767 mmHg 79%
    08:00 +22°C° 0.1 mm 4 mps 767 mmHg 73%
    09:00 +25°C° 0.1 mm 5 mps 767 mmHg 66%
    10:00 +26°C° 0.1 mm 5 mps 767 mmHg 60%
    11:00 +26°C° 0.1 mm 5 mps 767 mmHg 60%
    12:00 +26°C° 0.1 mm 5 mps 766 mmHg 59%
    13:00 +26°C° 0.1 mm 5 mps 766 mmHg 58%
    14:00 +26°C° 0.1 mm 4 mps 766 mmHg 59%
    15:00 +26°C° 0.1 mm 4 mps 765 mmHg 61%
    16:00 +25°C° 0.1 mm 4 mps 765 mmHg 63%
    17:00 +23°C° 0 mm 4 mps 765 mmHg 69%
    18:00 +21°C° 0 mm 4 mps 766 mmHg 76%
    19:00 +20°C° 0 mm 3 mps 766 mmHg 82%
    20:00 +20°C° 0 mm 3 mps 766 mmHg 84%
    21:00 +19°C° 0 mm 3 mps 766 mmHg 85%
    22:00 +19°C° 0 mm 3 mps 766 mmHg 86%
    23:00 +19°C° 0 mm 2 mps 766 mmHg 87%

    Day after tomorrow, 20 October, Friday

    Time Temperature Precipitation Wind Pressure Humidity
    00:00 +19°C° 0 mm 2 mps 765 mmHg 87%
    01:00 +18°C° 0 mm 2 mps 765 mmHg 88%
    02:00 +18°C° 0 mm 2 mps 765 mmHg 88%
    03:00 +18°C° 0 mm 2 mps 764 mmHg 89%
    04:00 +19°C° 0 mm 1 mps 764 mmHg 89%
    05:00 +20°C° 0 mm 1 mps 764 mmHg 85%
    06:00 +21°C° 0 mm 1 mps 764 mmHg 80%
    07:00 +22°C° 0 mm 1 mps 765 mmHg 76%
    08:00 +24°C° 0 mm 1 mps 764 mmHg 68%
    09:00 +25°C° 0 mm 2 mps 764 mmHg 60%
    10:00 +27°C° 0 mm 2 mps 764 mmHg 53%
    11:00 +27°C° 0 mm 2 mps 763 mmHg 51%
    12:00 +28°C° 0 mm 2 mps 763 mmHg 49%
    13:00 +28°C° 0 mm 3 mps 762 mmHg 47%
    14:00 +28°C° 0 mm 3 mps 761 mmHg 49%
    15:00 +28°C° 0 mm 3 mps 761 mmHg 51%
    16:00 +27°C° 0 mm 3 mps 760 mmHg 53%
    17:00 +25°C° 0 mm 3 mps 760 mmHg 60%
    18:00 +24°C° 0 mm 3 mps 761 mmHg 67%
    19:00 +21°C° 0 mm 3 mps 761 mmHg 74%
    20:00 +21°C° 0 mm 3 mps 761 mmHg 77%
    21:00 +20°C° 0 mm 3 mps 761 mmHg 80%
    22:00 +20°C° 0 mm 2 mps 762 mmHg 83%
    23:00 +19°C° 0 mm 2 mps 761 mmHg 84%

    21 October, Saturday

    Time Temperature Precipitation Wind Pressure Humidity
    00:00 +19°C° 0 mm 2 mps 761 mmHg 85%
    01:00 +20°C° 0 mm 1 mps 760 mmHg 86%
    02:00 +20°C° 0 mm 1 mps 760 mmHg 87%
    03:00 +20°C° 0 mm 1 mps 760 mmHg 88%
    04:00 +20°C° 0 mm 1 mps 759 mmHg 88%
    05:00 +20°C° 0.5 mm 1 mps 760 mmHg 89%
    06:00 +20°C° 0.5 mm 1 mps 760 mmHg 89%
    07:00 +20°C° 0.5 mm 1 mps 760 mmHg 89%
    08:00 +20°C° 1.9 mm 1 mps 760 mmHg 90%
    09:00 +20°C° 1.9 mm 2 mps 760 mmHg 90%
    10:00 +20°C° 1.9 mm 2 mps 760 mmHg 91%
    11:00 +20°C° 1.1 mm 3 mps 760 mmHg 90%
    12:00 +20°C° 1.1 mm 3 mps 759 mmHg 88%
    13:00 +20°C° 1.1 mm 4 mps 759 mmHg 87%
    14:00 +19°C° 1 mm 5 mps 758 mmHg 87%
    15:00 +19°C° 1 mm 5 mps 758 mmHg 88%
    16:00 +19°C° 1 mm 6 mps 758 mmHg 88%
    17:00 +17°C° 1.9 mm 6 mps 758 mmHg 89%
    18:00 +17°C° 1.9 mm 6 mps 758 mmHg 89%
    19:00 +16°C° 1.9 mm 6 mps 759 mmHg 90%
    20:00 +16°C° 1.4 mm 6 mps 759 mmHg 90%
    21:00 +16°C° 1.4 mm 5 mps 759 mmHg 90%
    22:00 +17°C° 1.4 mm 4 mps 759 mmHg 91%
    23:00 +16°C° 0.3 mm 5 mps 758 mmHg 90%

    22 October, Sunday

    Time Temperature Precipitation Wind Pressure Humidity
    00:00 +16°C° 0.3 mm 5 mps 758 mmHg 90%
    01:00 +16°C° 0.3 mm 5 mps 757 mmHg 90%
    02:00 +16°C° 0.1 mm 5 mps 757 mmHg 89%
    03:00 +16°C° 0.1 mm 5 mps 757 mmHg 88%
    04:00 +15°C° 0.1 mm 5 mps 757 mmHg 88%
    05:00 +16°C° 0 mm 5 mps 757 mmHg 84%
    06:00 +16°C° 0 mm 5 mps 758 mmHg 81%
    07:00 +16°C° 0 mm 5 mps 758 mmHg 77%
    08:00 +19°C° 0 mm 5 mps 758 mmHg 69%
    09:00 +21°C° 0 mm 5 mps 758 mmHg 61%
    10:00 +23°C° 0 mm 4 mps 758 mmHg 53%
    11:00 +25°C° 0 mm 4 mps 757 mmHg 52%
    12:00 +25°C° 0 mm 4 mps 756 mmHg 50%
    13:00 +26°C° 0 mm 4 mps 756 mmHg 48%
    14:00 +25°C° 0 mm 4 mps 756 mmHg 50%
    15:00 +25°C° 0 mm 4 mps 755 mmHg 52%
    16:00 +25°C° 0 mm 5 mps 755 mmHg 54%
    17:00 +22°C° 0 mm 4 mps 756 mmHg 60%
    18:00 +21°C° 0 mm 4 mps 757 mmHg 67%
    19:00 +19°C° 0 mm 4 mps 757 mmHg 73%
    20:00 +18°C° 0 mm 3 mps 758 mmHg 75%
    21:00 +18°C° 0 mm 3 mps 758 mmHg 77%
    22:00 +17°C° 0 mm 3 mps 758 mmHg 79%
    23:00 +17°C° 0 mm 2 mps 758 mmHg 81%

    23 October, Monday

    Time Temperature Precipitation Wind Pressure Humidity
    00:00 +16°C° 0 mm 2 mps 758 mmHg 82%
    01:00 +16°C° 0 mm 2 mps 758 mmHg 84%
    02:00 +16°C° 0 mm 2 mps 758 mmHg 85%
    03:00 +15°C° 0 mm 2 mps 758 mmHg 85%
    04:00 +15°C° 0 mm 2 mps 758 mmHg 86%
    05:00 +16°C° 0 mm 2 mps 758 mmHg 81%
    06:00 +18°C° 0 mm 2 mps 759 mmHg 75%
    07:00 +19°C° 0 mm 2 mps 759 mmHg 69%
    08:00 +21°C° 0 mm 2 mps 759 mmHg 61%
    09:00 +25°C° 0 mm 1 mps 759 mmHg 53%
    10:00 +27°C° 0 mm 1 mps 759 mmHg 45%
    11:00 +27°C° 0.2 mm 2 mps 759 mmHg 46%
    12:00 +27°C° 0.2 mm 2 mps 759 mmHg 48%
    13:00 +27°C° 0.2 mm 3 mps 759 mmHg 49%
    14:00 +25°C° 0.8 mm 3 mps 759 mmHg 56%
    15:00 +24°C° 0.8 mm 3 mps 759 mmHg 63%
    16:00 +22°C° 0.8 mm 3 mps 759 mmHg 69%
    17:00 +21°C° 0.2 mm 3 mps 760 mmHg 72%
    18:00 +20°C° 0.2 mm 2 mps 760 mmHg 75%
    19:00 +19°C° 0.2 mm 2 mps 761 mmHg 78%
    20:00 +19°C° 0 mm 2 mps 761 mmHg 79%
    21:00 +18°C° 0 mm 2 mps 762 mmHg 80%
    22:00 +18°C° 0 mm 2 mps 762 mmHg 81%
    23:00 +17°C° 0 mm 2 mps 762 mmHg 82%
    Show more